User: anonymous   Login
Location: Unspecified
(0.0000°N, 0.0000°E)
Time: 23:29:48
(UTC+00:00)
Language:

SAR-Lupe-5 - Orbit

View from above orbital plane
View from above orbital plane
View from above satellite
View from above satellite

Ground track
Ground track

The orbit data is extracted from the following two-line orbital elements,

1 33244U 08036A   17346.25106748 0.00001200  00000-0  44694-4 0    04
2 33244  98.1652 181.9831 0004000 106.9504 253.0495 15.27491257    00
Epoch (UTC): 12 December 2017 06:01:32
Eccentricity: 0.0004000
inclination: 98.1652°
perigee height: 480 km
apogee height: 486 km
right ascension of ascending node: 181.9831°
argument of perigee: 106.9504°
revolutions per day: 15.27491257
mean anomaly at epoch: 253.0495°
orbit number at epoch: 0

The dashed part of the orbit path shows where the satellite is in the earth's shadow,  

DLR